Location: Monrovia
(34.7865°N, 86.7139°W)
Time: 01:31:36
(UTC+00:00)

H-2A R/B - Visible Passes

Search period start: 24 October 2020 00:00
Search period end: 03 November 2020 00:00
Orbit: 577 x 655 km, 98.5° (Epoch: 23 October)

Date Brightness Start Highest point End Pass type
(mag) Time Alt. Az. Time Alt. Az. Time Alt. Az.
24 Oct 3.2 10:22:50 10° S 10:25:27 29° SW 10:25:27 29° SW visible
24 Oct 4.9 23:50:16 10° NW 23:52:27 14° WNW 23:54:37 10° W visible
25 Oct 4.9 09:03:52 10° ESE 09:04:36 13° ESE 09:04:36 13° ESE visible
25 Oct 3.5 10:39:28 10° SSW 10:41:41 22° SW 10:41:41 22° SW visible
26 Oct 4.5 09:19:24 10° SE 09:20:50 19° SE 09:20:50 19° SE visible
26 Oct 3.9 10:56:27 10° SW 10:57:55 15° WSW 10:57:55 15° WSW visible
27 Oct 4.0 09:35:11 10° SSE 09:37:03 24° SE 09:37:03 24° SE visible
28 Oct 3.6 09:51:09 10° SSE 09:53:17 28° SSE 09:53:17 28° SSE visible
28 Oct 3.9 23:17:32 10° N 23:21:14 32° WNW 23:24:53 10° SW visible
29 Oct 3.4 10:07:18 10° S 10:09:31 28° S 10:09:31 28° S visible
29 Oct 4.6 23:34:05 10° NNW 23:37:14 22° WNW 23:40:21 10° WSW visible
30 Oct 3.5 10:23:41 10° S 10:25:46 25° SSW 10:25:46 25° SSW visible
30 Oct 4.9 23:50:58 10° NNW 23:53:11 14° WNW 23:55:26 10° W visible
31 Oct 5.1 09:04:48 10° ESE 09:04:55 11° ESE 09:04:55 11° ESE visible
31 Oct 3.7 10:40:18 10° SSW 10:42:00 19° SW 10:42:00 19° SW visible
01 Nov 4.7 09:20:18 10° SE 09:21:10 15° SE 09:21:10 15° SE visible
01 Nov 4.0 10:57:16 10° SW 10:58:14 14° SW 10:58:14 14° SW visible
02 Nov 4.3 09:36:03 10° SSE 09:37:24 19° SE 09:37:24 19° SE visible
